Weather History for Northeast Philadelphia, PA

Change the Weather History Date:

Thursday, January 2, 2014

  Actual Average Record
Temperature  
Mean Temperature 28 °F -  
Max Temperature 34 °F 40 °F 63 °F (2000)
Min Temperature 21 °F 27 °F 9 °F (1999)
Degree Days  
Heating Degree Days 38    
Moisture  
Dew Point 23 °F    
Average Humidity 81    
Maximum Humidity 93    
Minimum Humidity 67    
Precipitation  
Precipitation 0.44 in - - ()
Sea Level Pressure  
Sea Level Pressure 29.86 in    
Wind  
Wind Speed 11 mph (NE)    
Max Wind Speed 18 mph    
Max Gust Speed 22 mph    
Visibility 5 miles    
Events Fog , Snow    
Averages and records for this station are not official NWS values.
T = Trace of Precipitation, MM = Missing Value Source: NWS Daily Summary

Daily Weather History Graph

Daily Weather History Graph

Search for Another Location

Airport:

Trip Planner

Search our weather history database for the weather conditions in past years. The results will help you decide how hot, cold, wet, or windy it might be!

Date:

Astronomy

Jan. 02, 2014 Rise Set
Actual Time 7:22 AM EST 4:46 PM EST
Civil Twilight 6:51 AM EST 5:16 PM EST
Nautical Twilight 6:17 AM EST 5:50 PM EST
Astronomical Twilight 5:45 AM EST 6:23 PM EST
Moon 8:01 AM EST (1/2) 6:40 PM EST (1/2)
Length of Visible Light 10h 24m
Length of Day
9h 23m
New Moon, 2% of the Moon is Illuminated
Jan 2
New Moon
Jan 7
First Quarter
Jan 15
Full
Jan 24
Last Quarter
Jan 30
New

Hourly Weather History & Observations

Time (EST) Temp. Windchill Dew Point Humidity Pressure Visibility Wind Dir Wind Speed Gust Speed Precip Events Conditions
12:54 AM 34.0 °F 26.6 °F 24.1 °F 67% 30.19 in 10.0 mi ENE 9.2 mph - N/A   Overcast
1:54 AM 34.0 °F 28.0 °F 25.0 °F 70% 30.17 in 10.0 mi NE 6.9 mph - N/A   Mostly Cloudy
2:54 AM 34.0 °F 26.6 °F 25.0 °F 70% 30.15 in 10.0 mi NE 9.2 mph - N/A   Overcast
3:54 AM 34.0 °F 26.6 °F 25.0 °F 70% 30.13 in 10.0 mi NE 9.2 mph - N/A   Mostly Cloudy
4:54 AM 34.0 °F 25.5 °F 26.1 °F 73% 30.09 in 10.0 mi NE 11.5 mph - N/A   Overcast
5:54 AM 34.0 °F 26.0 °F 25.0 °F 70% 30.09 in 10.0 mi ENE 10.4 mph - N/A   Overcast
6:54 AM 34.0 °F 24.6 °F 25.0 °F 70% 30.07 in 10.0 mi NE 13.8 mph - N/A   Overcast
7:54 AM 33.1 °F 23.4 °F 26.1 °F 75% 30.06 in 9.0 mi ENE 13.8 mph - N/A   Overcast
8:54 AM 32.0 °F 22.1 °F 26.1 °F 79% 30.06 in 8.0 mi NE 13.8 mph - N/A   Overcast
9:54 AM 32.0 °F 20.8 °F 26.1 °F 79% 30.04 in 8.0 mi NE 17.3 mph - N/A   Overcast
10:54 AM 30.9 °F 20.2 °F 25.0 °F 79% 30.01 in 7.0 mi NE 15.0 mph - N/A   Overcast
11:54 AM 30.9 °F 20.7 °F 25.0 °F 79% 29.97 in 7.0 mi NE 13.8 mph - N/A   Overcast
12:54 PM 30.0 °F 19.1 °F 24.1 °F 79% 29.92 in 8.0 mi NNE 15.0 mph - N/A   Overcast
1:54 PM 30.0 °F 20.0 °F 24.1 °F 79% 29.86 in 9.0 mi ENE 12.7 mph 21.9 mph N/A   Overcast
2:54 PM 30.0 °F 21.1 °F 24.1 °F 79% 29.84 in 9.0 mi NE 10.4 mph - N/A   Overcast
3:54 PM 28.9 °F 18.6 °F 24.1 °F 82% 29.85 in 8.0 mi NE 12.7 mph - N/A   Overcast
4:37 PM 28.4 °F 17.5 °F 23.0 °F 80% 29.82 in 9.0 mi NE 13.8 mph - N/A   Overcast
4:54 PM 28.0 °F 17.0 °F 23.0 °F 81% 29.81 in 9.0 mi NE 13.8 mph - N/A   Overcast
5:49 PM 26.6 °F 16.8 °F 23.0 °F 86% 29.79 in 2.5 mi NE 10.4 mph - 0.01 in Snow Light Snow
5:54 PM 27.0 °F 16.1 °F 24.1 °F 89% 29.79 in 1.8 mi NE 12.7 mph - 0.01 in Snow Light Snow
6:12 PM 26.6 °F 16.8 °F 24.8 °F 93% 29.76 in 0.8 mi NE 10.4 mph - 0.02 in Snow Light Snow
6:17 PM 26.6 °F 17.5 °F 24.8 °F 93% 29.77 in 1.0 mi NNE 9.2 mph - 0.02 in Snow Light Snow
6:52 PM 26.6 °F 15.7 °F 23.0 °F 86% 29.74 in 1.2 mi NE 12.7 mph - 0.04 in Snow Light Snow
6:54 PM 26.1 °F 16.8 °F 23.0 °F 88% 29.75 in 1.5 mi NNE 9.2 mph - 0.04 in Snow Light Snow
7:41 PM 24.8 °F 14.0 °F 21.2 °F 86% 29.73 in 0.8 mi NNE 11.5 mph - 0.03 in Snow Light Snow
7:54 PM 25.0 °F 14.2 °F 21.9 °F 88% 29.74 in 0.8 mi NNE 11.5 mph - 0.05 in Snow Light Snow
8:01 PM 24.8 °F 14.0 °F 21.2 °F 86% 29.73 in 0.5 mi NNE 11.5 mph - 0.01 in Fog , Snow Snow
8:54 PM 25.0 °F 16.3 °F 21.9 °F 88% 29.72 in 0.5 mi NNE 8.1 mph - 0.09 in Fog , Snow Snow
9:47 PM 24.8 °F 14.6 °F 19.4 °F 80% 29.68 in 1.0 mi NNE 10.4 mph - 0.10 in Snow Light Snow
9:54 PM 24.1 °F 12.5 °F 19.9 °F 84% 29.69 in 1.0 mi NNE 12.7 mph - 0.10 in Snow Light Snow
10:06 PM 23.0 °F 13.1 °F 19.4 °F 86% 29.68 in 0.8 mi NNE 9.2 mph - 0.02 in Snow Light Snow
10:19 PM 23.0 °F 10.6 °F 19.4 °F 86% 29.67 in 0.5 mi NNE 13.8 mph - 0.04 in Fog , Snow Snow
10:54 PM 23.0 °F 9.6 °F 19.0 °F 85% 29.68 in 0.8 mi NNE 16.1 mph - 0.09 in Snow Light Snow
11:02 PM 23.0 °F 11.1 °F 19.4 °F 86% 29.69 in 0.8 mi North 12.7 mph - 0.01 in Snow Light Snow
11:29 PM 21.2 °F 7.8 °F 17.6 °F 86% 29.68 in 0.8 mi North 15.0 mph - 0.03 in Snow Light Snow
11:40 PM 21.2 °F 8.3 °F 17.6 °F 86% 29.67 in 0.8 mi North 13.8 mph - 0.05 in Snow Light Snow
11:54 PM 21.0 °F 6.2 °F 18.0 °F 88% 29.67 in 0.8 mi NNE 18.4 mph - 0.06 in Snow Light Snow